| time (UTC) | temp F | wind direction | speed MPH | gust MPH | rain 1hr in | rain 24hr in | rain mn in | humidity % | barometer mb |
| 20260503213510 | 55 | 0 | 0.0 | 0.0 | 0.00 | 0.08 | 0.00 | 44 | 1001.7 |
| 20260503213009 | 55 | 0 | 0.0 | 0.0 | 0.00 | 0.08 | 0.00 | 45 | 1001.7 |
| 20260503211510 | 54 | 0 | 0.0 | 0.0 | 0.00 | 0.08 | 0.00 | 46 | 1001.5 |
| 20260503211009 | 53 | 0 | 0.0 | 0.0 | 0.00 | 0.08 | 0.00 | 47 | 1001.5 |
| 20260503210510 | 53 | 0 | 0.0 | 0.0 | 0.00 | 0.08 | 0.00 | 48 | 1001.4 |
| 20260503210009 | 53 | 0 | 0.0 | 0.0 | 0.00 | 0.08 | 0.00 | 49 | 1001.5 |
| 20260503204009 | 53 | 0 | 0.0 | 0.0 | 0.00 | 0.08 | 0.00 | 49 | 1001.4 |
| 20260503203509 | 53 | 0 | 0.0 | 0.0 | 0.00 | 0.08 | 0.00 | 49 | 1001.3 |
| 20260503203009 | 53 | 0 | 0.0 | 0.0 | 0.00 | 0.08 | 0.00 | 50 | 1001.3 |
| 20260503201009 | 54 | 0 | 0.0 | 0.0 | 0.00 | 0.08 | 0.00 | 47 | 1001.4 |
| 20260503200510 | 54 | 0 | 0.0 | 0.0 | 0.00 | 0.08 | 0.00 | 49 | 1001.3 |
| 20260503200010 | 54 | 0 | 0.0 | 0.0 | 0.00 | 0.08 | 0.00 | 48 | 1001.3 |
| 20260503194009 | 52 | 0 | 0.0 | 0.0 | 0.00 | 0.08 | 0.00 | 53 | 1001.6 |
| 20260503193509 | 52 | 0 | 0.0 | 0.0 | 0.00 | 0.08 | 0.00 | 54 | 1001.6 |
| 20260503193009 | 52 | 0 | 0.0 | 0.0 | 0.00 | 0.08 | 0.00 | 54 | 1001.6 |
| 20260503191509 | 52 | 0 | 0.0 | 0.0 | 0.00 | 0.08 | 0.00 | 57 | 1001.8 |
| 20260503191009 | 52 | 0 | 0.0 | 0.0 | 0.00 | 0.08 | 0.00 | 58 | 1001.8 |
| 20260503190509 | 52 | 0 | 0.0 | 0.0 | 0.00 | 0.08 | 0.00 | 59 | 1001.9 |
| 20260503190009 | 52 | 0 | 0.0 | 0.0 | 0.00 | 0.08 | 0.00 | 56 | 1001.8 |
| 20260503184509 | 51 | 0 | 0.0 | 0.0 | 0.00 | 0.08 | 0.00 | 60 | 1001.8 |
| 20260503184009 | 50 | 0 | 0.0 | 0.0 | 0.00 | 0.08 | 0.00 | 60 | 1001.9 |
| 20260503183509 | 50 | 0 | 0.0 | 0.0 | 0.00 | 0.08 | 0.00 | 61 | 1001.9 |
| 20260503181509 | 49 | 0 | 0.0 | 0.0 | 0.00 | 0.08 | 0.00 | 66 | 1002.0 |
| 20260503181008 | 49 | 0 | 0.0 | 0.0 | 0.00 | 0.08 | 0.00 | 66 | 1002.0 |
| 20260503180508 | 49 | 0 | 0.0 | 0.0 | 0.00 | 0.08 | 0.00 | 66 | 1002.1 |
| 20260503180009 | 49 | 0 | 0.0 | 0.0 | 0.00 | 0.08 | 0.00 | 67 | 1002.0 |
| 20260503174508 | 49 | 0 | 0.0 | 0.0 | 0.00 | 0.08 | 0.00 | 66 | 1002.0 |
| 20260503174009 | 49 | 0 | 0.0 | 0.0 | 0.00 | 0.08 | 0.00 | 65 | 1002.0 |
| 20260503173509 | 49 | 0 | 0.0 | 0.0 | 0.00 | 0.08 | 0.00 | 66 | 1002.0 |
| 20260503173008 | 48 | 0 | 0.0 | 0.0 | 0.00 | 0.08 | 0.00 | 66 | 1002.0 |
| 20260503171509 | 48 | 0 | 0.0 | 0.0 | 0.00 | 0.08 | 0.00 | 68 | 1002.0 |
| 20260503171008 | 47 | 0 | 0.0 | 0.0 | 0.00 | 0.08 | 0.00 | 68 | 1002.0 |
| 20260503170508 | 47 | 0 | 0.0 | 0.0 | 0.00 | 0.08 | 0.00 | 69 | 1002.0 |
| 20260503151008 | 47 | 0 | 0.0 | 0.0 | 0.00 | 0.08 | 0.00 | 75 | 1002.0 |
| 20260503150508 | 48 | 0 | 0.0 | 0.0 | 0.00 | 0.08 | 0.00 | 74 | 1002.1 |
| 20260503130508 | 44 | 0 | 0.0 | 0.0 | 0.00 | 0.12 | 0.00 | 91 | 1002.9 |
| 20260503110507 | 42 | 0 | 0.0 | 0.0 | 0.00 | 0.22 | 0.00 | 99 | 1003.8 |
| 20260503090506 | 42 | 0 | 0.0 | 0.0 | 0.00 | 0.22 | 0.00 | 99 | 1003.8 |
| 20260503081506 | 43 | 0 | 0.0 | 0.0 | 0.00 | 0.23 | 0.00 | 99 | 1004.7 |
| 20260503081006 | 43 | 0 | 0.0 | 0.0 | 0.00 | 0.23 | 0.00 | 99 | 1004.7 |
| 20260503071505 | 44 | 0 | 0.0 | 0.0 | 0.00 | 0.23 | 0.00 | 99 | 1005.2 |
| 20260503071006 | 44 | 0 | 0.0 | 0.0 | 0.00 | 0.23 | 0.00 | 99 | 1004.9 |
| 20260503070506 | 44 | 0 | 0.0 | 0.0 | 0.00 | 0.23 | 0.00 | 99 | 1005.0 |
| 20260503054505 | 45 | 0 | 0.0 | 0.0 | 0.00 | 0.23 | 0.00 | 99 | 1005.8 |
| 20260503054005 | 45 | 0 | 0.0 | 0.0 | 0.00 | 0.23 | 0.00 | 99 | 1006.0 |
| 20260503053505 | 45 | 0 | 0.0 | 0.0 | 0.00 | 0.23 | 0.00 | 99 | 1005.9 |
| 20260503053005 | 45 | 0 | 0.0 | 0.0 | 0.00 | 0.23 | 0.00 | 99 | 1005.9 |
| 20260503051506 | 45 | 0 | 0.0 | 0.0 | 0.00 | 0.23 | 0.00 | 99 | 1006.3 |
| 20260503051006 | 45 | 0 | 0.0 | 0.0 | 0.00 | 0.23 | 0.00 | 99 | 1006.4 |
| 20260503044005 | 45 | 0 | 0.0 | 0.0 | 0.00 | 0.23 | 0.00 | 99 | 1007.1 |
| 20260503043506 | 45 | 0 | 0.0 | 0.0 | 0.00 | 0.23 | 0.00 | 99 | 1007.1 |
| 20260503043006 | 45 | 0 | 0.0 | 0.0 | 0.00 | 0.23 | 0.00 | 99 | 1007.1 |
| 20260503041505 | 46 | 0 | 0.0 | 0.0 | 0.00 | 0.23 | 0.00 | 99 | 1006.9 |
| 20260503041005 | 46 | 0 | 0.0 | 0.0 | 0.00 | 0.23 | 0.00 | 99 | 1007.0 |
| 20260503040505 | 46 | 0 | 0.0 | 0.0 | 0.00 | 0.23 | 0.00 | 99 | 1007.0 |
| 20260503040006 | 46 | 0 | 0.0 | 0.0 | 0.00 | 0.23 | 0.00 | 99 | 1006.9 |
| 20260503031505 | 46 | 0 | 0.0 | 0.0 | 0.00 | 0.23 | 0.17 | 99 | 1006.9 |
| 20260503030505 | 46 | 0 | 0.0 | 0.0 | 0.01 | 0.23 | 0.17 | 99 | 1006.9 |
| 20260503030005 | 46 | 0 | 0.0 | 0.0 | 0.01 | 0.23 | 0.17 | 99 | 1007.0 |
| 20260503024505 | 46 | 0 | 0.0 | 0.0 | 0.02 | 0.23 | 0.17 | 99 | 1007.5 |
| 20260503023505 | 46 | 0 | 0.0 | 0.0 | 0.02 | 0.23 | 0.17 | 99 | 1007.6 |
| 20260503023005 | 46 | 0 | 0.0 | 0.0 | 0.02 | 0.23 | 0.17 | 99 | 1007.7 |
| 20260503021504 | 46 | 0 | 0.0 | 0.0 | 0.02 | 0.23 | 0.18 | 99 | 1007.8 |
| 20260503021004 | 46 | 0 | 0.0 | 0.0 | 0.02 | 0.22 | 0.18 | 99 | 1007.8 |
| 20260503020005 | 46 | 0 | 0.0 | 0.0 | 0.02 | 0.21 | 0.16 | 99 | 1008.0 |
| 20260503014504 | 46 | 0 | 0.0 | 0.0 | 0.01 | 0.20 | 0.16 | 99 | 1007.9 |
| 20260503014004 | 46 | 0 | 0.0 | 0.0 | 0.01 | 0.20 | 0.16 | 99 | 1007.9 |
| 20260503013505 | 46 | 0 | 0.0 | 0.0 | 0.01 | 0.20 | 0.16 | 99 | 1007.9 |
| 20260503013005 | 46 | 0 | 0.0 | 0.0 | 0.01 | 0.20 | 0.16 | 99 | 1007.9 |
| 20260503011005 | 46 | 0 | 0.0 | 0.0 | 0.01 | 0.20 | 0.16 | 99 | 1007.9 |
| 20260503010505 | 46 | 0 | 0.0 | 0.0 | 0.01 | 0.20 | 0.16 | 99 | 1007.8 |
| 20260503010004 | 46 | 0 | 0.0 | 0.0 | 0.00 | 0.19 | 0.14 | 99 | 1007.8 |
| 20260503004504 | 47 | 0 | 0.0 | 0.0 | 0.01 | 0.19 | 0.14 | 99 | 1007.8 |
| 20260503004004 | 47 | 0 | 0.0 | 0.0 | 0.01 | 0.19 | 0.14 | 99 | 1007.8 |
| 20260503003004 | 47 | 0 | 0.0 | 0.0 | 0.02 | 0.19 | 0.14 | 99 | 1007.9 |
| 20260503001004 | 47 | 0 | 0.0 | 0.0 | 0.03 | 0.19 | 0.14 | 99 | 1007.7 |
| 20260503000504 | 47 | 0 | 0.0 | 0.0 | 0.03 | 0.19 | 0.14 | 99 | 1007.6 |
| 20260503000004 | 47 | 0 | 0.0 | 0.0 | 0.03 | 0.19 | 0.14 | 99 | 1007.6 |
| 20260502234504 | 47 | 0 | 0.0 | 0.0 | 0.03 | 0.18 | 0.14 | 99 | 1007.7 |
| 20260502234004 | 47 | 0 | 0.0 | 0.0 | 0.02 | 0.17 | 0.13 | 100 | 1007.8 |
| 20260502233504 | 48 | 0 | 0.0 | 0.0 | 0.02 | 0.17 | 0.13 | 99 | 1007.8 |
| 20260502233004 | 48 | 0 | 0.0 | 0.0 | 0.01 | 0.16 | 0.13 | 98 | 1007.7 |
| 20260502231504 | 48 | 0 | 0.0 | 0.0 | 0.00 | 0.15 | 0.11 | 96 | 1007.5 |
| 20260502231004 | 48 | 0 | 0.0 | 0.0 | 0.00 | 0.15 | 0.11 | 95 | 1007.4 |
| 20260502230504 | 48 | 0 | 0.0 | 0.0 | 0.00 | 0.15 | 0.11 | 95 | 1007.3 |
| 20260502230004 | 48 | 0 | 0.0 | 0.0 | 0.00 | 0.15 | 0.11 | 95 | 1007.3 |
| 20260502224003 | 48 | 0 | 0.0 | 0.0 | 0.00 | 0.15 | 0.11 | 94 | 1007.4 |
| 20260502223503 | 48 | 0 | 0.0 | 0.0 | 0.00 | 0.15 | 0.11 | 94 | 1007.4 |
| 20260502223003 | 49 | 0 | 0.0 | 0.0 | 0.00 | 0.15 | 0.11 | 93 | 1007.4 |
| 20260502221504 | 49 | 0 | 0.0 | 0.0 | 0.00 | 0.15 | 0.11 | 91 | 1007.4 |
| 20260502221011 | 49 | 0 | 0.0 | 0.0 | 0.00 | 0.15 | 0.11 | 91 | 1007.4 |
| 20260502220510 | 49 | 0 | 0.0 | 0.0 | 0.00 | 0.15 | 0.11 | 91 | 1007.4 |
| 20260502220010 | 49 | 0 | 0.0 | 0.0 | 0.00 | 0.15 | 0.11 | 91 | 1007.4 |
| 20260502214510 | 49 | 0 | 0.0 | 0.0 | 0.00 | 0.15 | 0.11 | 91 | 1007.6 |
| 20260502214010 | 49 | 0 | 0.0 | 0.0 | 0.00 | 0.15 | 0.11 | 92 | 1007.6 |